Wind_Speed
6 6 7 7 6 5 4 5 6 7 8 9 9 9 8 8 9 10 11 12 12 12 12 11 10 10 9 8 6 4 4 4 6 6 7 6 6 5 5 5 5 6 7
3 4 5 5 4 3 2 2 4 5 5 5 5 5 5 6 7 8 8 9 9 9 9 9 9 9 9 8 7 5 3 2 3 4 5 5 5 4 4 3 3 4 4
2 3 3 3 2 1 1 2 3 4 5 4 4 3 4 4 5 5 6 6 7 7 7 7 7 7 6 6 7 6 5 3 2 1 2 3 3 3 3 3 3 3 4
1 0 2 1 0 2 3 4 4 5 6 6 5 5 5 5 5 5 5 6 6 7 8 8 6 5 4 4 4 4 5 5 3 1 0 1 2 2 2 3 3 3 4
3 3 2 2 3 4 5 6 6 6 6 6 6 6 6 6 6 6 6 7 8 8 9 10 10 7 5 3 3 2 2 2 3 2 1 2 3 4 4 4 4 4 4
2 3 3 4 5 6 6 7 7 7 7 6 6 7 7 8 8 7 8 9 10 11 12 12 12 11 8 6 5 5 4 2 1 1 1 1 3 6 7 7 6 5 4
3 3 3 4 5 5 6 7 7 8 8 7 7 7 8 9 9 9 10 11 12 13 13 13 12 12 10 9 8 8 8 6 5 3 2 2 3 5 7 11 11 9 7
2 3 3 3 4 5 6 7 8 9 9 9 9 9 10 10 12 13 13 14 15 15 15 14 13 12 12 10 10 10 10 10 9 7 7 5 4 5 6 7 11 12 10
5 6 6 7 7 7 8 8 9 10 11 11 11 11 12 13 14 16 17 17 17 17 17 16 15 14 14 13 12 12 12 12 12 11 11 10 8 6 6 6 6 9 11
10 12 13 14 14 14 14 13 14 14 14 15 15 15 16 17 18 19 20 20 20 20 21 20 19 18 17 17 16 15 15 14 14 14 14 13 12 11 9 8 7 8 10
16 18 19 20 20 21 21 21 21 20 20 20 21 21 21 21 22 23 23 23 24 24 24 24 24 23 22 21 20 19 19 19 18 17 17 16 16 15 13 12 11 10 10
22 23 24 24 25 25 26 27 27 27 27 27 27 27 27 26 26 26 26 27 28 28 29 29 29 28 27 26 25 24 23 23 23 21 20 19 18 17 16 15 15 14 13
26 27 28 28 29 30 31 32 32 32 33 33 32 32 32 31 31 31 31 31 31 33 34 34 34 34 33 32 31 29 28 28 27 26 25 24 22 21 19 18 18 17 17
30 31 31 32 32 33 34 35 36 36 37 37 37 37 37 36 36 35 35 35 35 37 38 40 40 39 38 38 36 35 34 32 31 31 30 28 27 25 24 23 22 21 20
34 35 35 34 33 33 34 35 36 36 37 37 38 39 39 39 38 38 37 37 38 39 40 42 42 42 42 42 41 40 40 39 37 36 34 33 31 29 28 27 26 26 24
37 37 36 34 34 33 33 33 34 34 34 34 35 36 37 37 37 37 36 36 36 37 36 37 38 39 40 41 41 41 41 41 40 40 38 37 35 32 30 29 29 29 28
38 37 35 34 34 34 33 33 33 33 32 32 33 33 33 33 33 33 33 33 34 35 35 36 36 35 34 35 34 34 35 36 37 37 37 35 33 33 33 31 31 31 30
38 37 36 35 35 34 33 33 33 32 30 29 28 27 27 27 29 30 31 32 34 35 37 38 38 37 36 36 36 34 32 32 33 34 35 33 31 31 32 33 33 32 32
37 36 36 37 36 34 33 31 29 29 29 27 25 24 23 24 25 27 29 31 33 35 36 37 38 39 39 39 39 37 36 35 35 36 35 34 33 32 33 35 36 36 34
36 36 37 37 36 34 31 29 26 25 25 24 23 22 21 22 23 24 27 29 32 35 36 38 38 39 39 39 39 39 37 37 37 38 37 37 35 35 35 36 37 37 36
38 38 37 36 34 31 29 27 24 22 21 20 19 17 17 17 18 20 23 26 30 33 36 38 39 40 39 39 39 37 37 36 36 36 36 37 36 36 36 36 37 38 38
39 39 37 35 31 29 27 25 22 19 17 15 13 13 14 14 16 18 20 23 25 29 32 36 39 41 41 41 40 39 36 35 34 34 35 35 36 37 36 36 37 37 37
41 40 37 34 31 29 27 23 20 16 14 13 13 14 15 16 17 19 20 22 24 26 28 31 35 38 40 41 42 41 39 36 35 34 33 34 35 35 35 36 36 37 37
39 38 36 33 31 30 27 23 20 18 16 16 17 18 19 20 20 21 22 24 25 27 27 29 31 34 37 39 41 42 40 39 37 35 34 34 36 36 36 36 36 37 38
37 36 35 34 33 30 27 25 23 21 21 21 22 23 23 23 23 23 24 25 26 27 28 29 29 31 34 36 39 41 41 40 38 37 36 35 35 36 36 35 35 36 37
35 35 36 35 34 31 29 28 26 26 27 27 28 28 27 26 25 25 25 25 26 27 29 30 30 30 31 33 36 39 40 39 39 37 36 35 35 35 35 34 33 34 35
Wind_Direction
112 94 88 89 96 101 82 58 49 53 64 74 82 84 81 73 66 63 64 65 65 65 64 64 63 61 59 57 60 68 73 69 69 70 66 65 75 93 103 100 96 94 97
136 114 99 92 93 106 91 33 19 19 29 43 55 64 62 60 60 60 59 58 57 57 58 60 60 60 58 57 55 54 56 60 67 74 76 72 73 86 109 128 134 127 118
158 143 118 107 106 143 240 307 330 338 341 345 350 357 5 20 36 43 45 45 43 38 35 39 46 52 54 53 54 54 53 49 42 62 87 92 92 92 104 138 167 179 173
359 64 99 101 256 263 266 278 293 305 312 316 319 320 325 334 350 6 13 17 19 15 9 5 8 18 29 34 40 49 55 58 56 52 218 200 168 148 138 146 164 184 192
354 350 356 332 303 290 281 279 285 290 294 299 305 308 310 315 323 336 349 356 356 354 352 349 344 339 336 336 339 350 19 46 63 68 96 222 223 215 201 190 180 176 183
337 345 342 326 310 299 288 283 286 289 290 290 293 298 302 307 313 322 332 338 340 340 340 341 340 334 324 314 303 295 293 296 325 43 58 253 241 233 225 220 210 194 184
313 333 339 331 322 313 300 289 288 289 289 290 292 296 300 302 306 311 318 324 329 330 330 331 332 329 322 311 299 286 281 277 274 275 280 288 282 261 243 234 217 208 198
324 332 325 314 306 302 298 292 287 284 282 284 288 292 296 298 300 304 308 314 319 322 322 322 321 319 315 305 293 284 277 272 268 266 268 270 279 287 276 269 224 212 212
332 324 315 305 297 291 285 282 281 278 275 275 279 284 289 292 294 297 300 305 309 312 313 313 311 309 306 301 291 282 277 272 267 264 263 264 265 272 280 277 249 228 222
317 314 310 305 298 292 286 281 277 275 272 272 274 278 283 287 290 292 294 297 300 302 304 303 302 301 300 296 291 283 277 272 268 266 265 264 263 262 264 265 258 247 238
309 309 307 305 301 295 289 284 280 277 275 273 274 276 279 282 284 286 288 290 292 293 293 293 292 290 290 289 287 284 279 274 270 268 266 266 265 264 261 259 257 253 249
307 307 307 305 301 296 291 286 281 278 276 274 274 275 276 276 277 278 280 281 283 284 283 283 283 282 281 280 280 279 276 275 272 269 266 265 265 266 263 259 256 254 253
305 306 306 304 300 297 293 289 285 281 278 276 275 275 275 274 274 273 273 274 276 277 277 277 276 276 275 274 273 272 272 271 271 270 268 265 263 263 262 259 257 255 255
304 305 304 303 300 296 293 288 285 282 280 278 277 276 275 274 274 274 274 275 275 275 275 275 274 272 271 270 269 267 267 265 265 265 266 266 265 262 259 259 257 255 255
301 303 303 301 299 296 292 288 286 284 283 281 279 277 276 276 276 276 276 276 276 276 276 275 275 272 270 268 266 264 264 264 264 263 263 263 263 263 260 258 258 256 255
298 299 300 299 298 295 292 289 288 286 284 282 280 278 277 276 277 278 278 279 279 279 281 282 282 278 274 273 271 268 266 265 265 265 265 265 262 261 261 259 257 257 256
295 297 297 297 297 295 293 291 288 285 284 281 279 278 278 279 280 281 281 282 283 283 284 286 287 286 286 281 279 278 275 269 267 268 269 268 266 262 260 260 259 257 257
292 293 294 296 298 297 295 290 287 283 282 282 281 280 280 281 283 284 285 285 284 285 284 283 283 283 282 282 282 280 278 274 269 269 270 270 269 265 262 260 260 257 256
288 290 293 297 299 296 293 289 287 284 282 281 282 284 285 286 288 289 289 289 288 286 284 282 280 279 279 278 276 275 274 273 271 271 272 271 268 265 264 262 260 258 256
284 288 294 297 297 294 291 290 289 287 283 281 282 284 287 290 292 293 293 292 290 288 286 284 281 279 278 277 275 274 272 271 270 269 269 268 266 263 262 262 261 258 255
284 290 294 295 293 290 290 291 289 286 283 280 280 283 287 293 298 300 300 297 292 289 285 282 280 278 277 277 276 275 273 271 269 268 268 266 264 263 262 261 260 258 256
287 291 292 293 291 290 290 290 287 283 279 275 274 279 287 295 302 306 307 307 303 297 291 284 279 276 274 273 273 273 272 272 271 268 265 264 263 263 263 261 260 259 257
287 288 289 290 291 291 290 290 286 281 277 275 279 286 291 297 303 309 313 316 316 311 302 294 286 280 274 271 270 269 269 269 269 267 265 264 264 264 264 262 260 259 257
283 284 286 288 289 289 289 287 284 279 277 279 283 287 293 300 305 310 315 318 321 321 315 304 295 287 279 273 269 267 266 266 265 265 264 264 265 265 264 262 262 260 259
279 281 283 286 288 288 286 285 282 276 274 276 280 285 291 297 302 307 312 317 321 323 323 317 306 295 286 277 271 267 265 264 264 263 263 263 263 264 265 265 264 263 260
275 279 282 285 286 286 285 284 280 275 273 274 277 281 286 291 298 304 309 313 318 322 325 324 317 306 295 285 275 269 266 263 262 261 260 261 263 263 264 265 265 265 263
Height
5930 5930 5929 5929 5929 5928 5928 5927 5926 5925 5923 5921 5920 5918 5918 5917 5916 5915 5914 5913 5912 5910 5909 5907 5906 5904 5903 5902 5901 5900 5899 5898 5898 5897 5896 5895 5895 5894 5894 5894 5894 5893 5893
5931 5930 5929 5929 5929 5929 5928 5928 5927 5925 5923 5922 5920 5919 5918 5917 5916 5915 5914 5914 5913 5911 5910 5909 5907 5906 5904 5903 5901 5900 5899 5899 5898 5897 5896 5896 5895 5895 5895 5894 5894 5894 5894
5932 5931 5930 5930 5930 5929 5929 5928 5927 5925 5924 5922 5921 5919 5918 5917 5916 5915 5914 5913 5913 5912 5911 5909 5908 5906 5905 5904 5902 5901 5900 5899 5898 5897 5897 5896 5895 5895 5895 5895 5894 5895 5895
5933 5932 5931 5931 5931 5930 5929 5928 5926 5925 5924 5922 5921 5919 5918 5917 5916 5915 5914 5914 5913 5912 5911 5910 5908 5907 5905 5904 5903 5901 5900 5900 5898 5897 5897 5896 5895 5895 5895 5895 5894 5894 5894
5933 5932 5932 5931 5931 5930 5929 5928 5926 5925 5923 5922 5921 5919 5918 5917 5916 5915 5914 5914 5913 5912 5911 5909 5908 5906 5905 5904 5903 5902 5901 5900 5899 5898 5897 5896 5895 5895 5895 5895 5894 5894 5894
5931 5931 5931 5930 5930 5929 5928 5927 5926 5924 5923 5921 5920 5919 5917 5916 5915 5914 5913 5913 5912 5911 5910 5909 5907 5906 5904 5903 5902 5901 5900 5900 5899 5898 5897 5896 5895 5894 5894 5894 5894 5894 5893
5930 5929 5929 5929 5929 5928 5927 5926 5925 5923 5922 5920 5919 5918 5916 5915 5914 5913 5912 5911 5910 5909 5908 5907 5906 5905 5903 5902 5901 5900 5900 5899 5898 5897 5896 5896 5895 5894 5893 5892 5893 5893 5893
5929 5928 5927 5927 5926 5926 5925 5924 5923 5922 5920 5919 5918 5916 5915 5914 5913 5911 5910 5909 5908 5907 5906 5905 5904 5903 5902 5901 5900 5899 5898 5898 5897 5897 5896 5895 5894 5893 5893 5891 5890 5891 5891
5928 5927 5926 5925 5925 5924 5923 5922 5921 5920 5918 5917 5916 5914 5913 5912 5911 5909 5908 5906 5905 5904 5903 5902 5901 5901 5900 5899 5898 5897 5897 5896 5895 5895 5894 5894 5893 5892 5892 5891 5891 5890 5890
5926 5925 5925 5924 5923 5922 5921 5920 5918 5917 5916 5914 5913 5912 5911 5909 5908 5906 5905 5903 5902 5901 5900 5899 5898 5898 5897 5897 5896 5895 5894 5894 5893 5893 5892 5892 5891 5891 5890 5890 5889 5889 5889
5924 5923 5922 5921 5920 5919 5918 5916 5915 5913 5912 5910 5909 5908 5906 5905 5904 5902 5901 5900 5898 5897 5896 5895 5894 5894 5894 5893 5892 5892 5891 5890 5890 5889 5889 5889 5889 5888 5888 5888 5887 5887 5887
5920 5919 5918 5917 5916 5914 5913 5911 5910 5908 5907 5905 5903 5902 5901 5900 5899 5897 5896 5895 5894 5892 5891 5890 5889 5888 5888 5888 5888 5888 5887 5886 5886 5885 5885 5885 5885 5885 5885 5885 5884 5884 5884
5916 5915 5914 5912 5911 5909 5907 5905 5904 5902 5901 5899 5897 5896 5895 5894 5892 5891 5890 5889 5888 5887 5885 5884 5883 5882 5882 5881 5881 5882 5881 5881 5881 5880 5880 5881 5881 5881 5881 5881 5881 5881 5881
5912 5911 5909 5907 5905 5903 5901 5899 5897 5895 5893 5892 5890 5889 5888 5887 5886 5885 5884 5883 5882 5880 5879 5877 5876 5875 5874 5874 5874 5874 5874 5874 5874 5874 5874 5875 5875 5876 5877 5877 5877 5877 5877
5907 5906 5904 5902 5899 5897 5895 5892 5890 5888 5886 5884 5882 5881 5880 5879 5878 5877 5877 5875 5874 5873 5871 5869 5867 5866 5865 5865 5865 5865 5865 5865 5866 5866 5867 5867 5868 5869 5870 5872 5872 5872 5873
5902 5900 5898 5895 5893 5890 5888 5885 5883 5881 5879 5877 5874 5873 5871 5871 5870 5869 5868 5868 5866 5864 5863 5861 5859 5857 5856 5856 5856 5856 5856 5856 5857 5858 5858 5859 5860 5861 5863 5864 5866 5866 5867
5897 5894 5892 5889 5886 5883 5881 5879 5877 5874 5872 5870 5867 5866 5865 5863 5863 5862 5861 5860 5858 5856 5855 5853 5852 5850 5849 5848 5848 5848 5848 5848 5848 5849 5850 5850 5852 5853 5855 5856 5858 5859 5860
5891 5888 5886 5883 5880 5877 5875 5872 5870 5867 5865 5863 5861 5860 5859 5858 5857 5856 5854 5853 5851 5849 5848 5846 5845 5843 5842 5841 5840 5839 5840 5840 5840 5841 5842 5843 5843 5845 5846 5848 5849 5850 5852
5885 5882 5880 5877 5874 5871 5868 5866 5863 5861 5859 5857 5855 5854 5853 5852 5850 5849 5847 5845 5843 5842 5840 5838 5837 5835 5834 5833 5832 5831 5832 5832 5832 5833 5833 5834 5835 5836 5837 5838 5840 5841 5843
5879 5876 5874 5871 5868 5865 5862 5859 5857 5855 5853 5851 5849 5848 5847 5846 5844 5842 5840 5838 5836 5834 5832 5830 5828 5826 5825 5824 5822 5822 5823 5823 5824 5824 5825 5825 5826 5827 5828 5829 5830 5832 5834
5872 5870 5868 5865 5862 5859 5856 5853 5851 5849 5847 5845 5844 5842 5841 5839 5838 5836 5833 5831 5829 5826 5824 5821 5819 5817 5816 5815 5814 5814 5814 5814 5815 5816 5816 5816 5817 5818 5819 5820 5821 5822 5824
5866 5863 5860 5857 5855 5852 5850 5847 5845 5843 5841 5839 5838 5837 5836 5834 5832 5830 5827 5824 5821 5818 5815 5812 5809 5808 5807 5806 5805 5805 5806 5807 5806 5807 5807 5807 5808 5809 5810 5811 5812 5813 5815
5857 5855 5852 5850 5848 5846 5843 5841 5838 5837 5835 5834 5833 5832 5831 5829 5827 5824 5821 5818 5815 5811 5807 5803 5800 5798 5798 5797 5796 5796 5797 5798 5798 5798 5799 5799 5799 5800 5801 5802 5803 5805 5806
5849 5846 5844 5842 5841 5838 5836 5834 5832 5831 5830 5829 5827 5826 5824 5822 5820 5817 5814 5811 5807 5803 5800 5796 5792 5789 5787 5787 5786 5786 5787 5788 5789 5790 5791 5791 5792 5791 5792 5793 5794 5796 5797
5841 5838 5836 5835 5833 5831 5829 5827 5826 5825 5824 5822 5821 5819 5817 5815 5813 5810 5807 5804 5801 5797 5792 5788 5784 5780 5777 5776 5775 5776 5777 5778 5779 5781 5782 5783 5783 5783 5783 5784 5785 5786 5787
5832 5831 5828 5827 5825 5823 5822 5820 5819 5818 5817 5815 5814 5812 5810 5808 5805 5803 5800 5797 5793 5790 5786 5781 5777 5772 5769 5766 5765 5765 5766 5768 5770 5771 5773 5774 5774 5775 5775 5776 5777 5777 5778